Weather History for Moses Lake, WA

Change the Weather History Date:

Friday, January 11, 2013

  Actual Average Record
Temperature  
Mean Temperature 26 °F 29 °F  
Max Temperature 35 °F 35 °F 57 °F (1983)
Min Temperature 17 °F 23 °F -1 °F (1980)
Degree Days  
Heating Degree Days 39 36  
Month to date heating degree days 395 402  
Since 1 July heating degree days 2603 2989  
Cooling Degree Days 0 0  
Month to date cooling degree days 0 0  
Year to date cooling degree days 0 0  
Moisture  
Dew Point 15 °F    
Average Humidity 64    
Maximum Humidity 84    
Minimum Humidity 44    
Precipitation  
Precipitation T in 0.05 in 0.02 in (1984)
Month to date precipitation 0.27 0.55  
Year to date precipitation 0.27 0.55  
Sea Level Pressure  
Sea Level Pressure 30.20 in    
Wind  
Wind Speed 11 mph (North)    
Max Wind Speed 24 mph    
Max Gust Speed 31 mph    
Visibility 10 miles    
Events      
T = Trace of Precipitation, MM = Missing Value Source: NWS Daily Summary

Daily Weather History Graph

Daily Weather History Graph

Search for Another Location

Airport:

Trip Planner

Search our weather history database for the weather conditions in past years. The results will help you decide how hot, cold, wet, or windy it might be!

Date:

Astronomy

Jan. 11, 2013 Rise Set
Actual Time 7:41 AM PST 4:29 PM PST
Civil Twilight 7:06 AM PST 5:04 PM PST
Nautical Twilight 6:28 AM PST 5:42 PM PST
Astronomical Twilight 5:51 AM PST 6:19 PM PST
Moon 7:15 AM PST (1/11) 4:57 PM PST (1/11)
Length of Visible Light 9h 57m
Length of Day
8h 48m
New Moon, 0% of the Moon is Illuminated
Jan 11
New Moon
Jan 18
First Quarter
Jan 26
Full
Feb 3
Last Quarter
Feb 9
New

Hourly Weather History & Observations

Time (PST) Temp. Windchill Dew Point Humidity Pressure Visibility Wind Dir Wind Speed Gust Speed Precip Events Conditions
12:52 AM 28.0 °F 15.7 °F 12.0 °F 51% 30.02 in 10.0 mi North 17.3 mph - N/A   Mostly Cloudy
1:52 AM 28.0 °F 15.3 °F 10.9 °F 49% 30.03 in 10.0 mi North 18.4 mph - N/A   Clear
2:52 AM 27.0 °F 14.7 °F 10.9 °F 51% 30.05 in 10.0 mi North 16.1 mph - N/A   Clear
3:52 AM 28.9 °F 17.3 °F 12.9 °F 51% 30.06 in 10.0 mi North 16.1 mph - N/A   Overcast
4:52 AM 28.9 °F 16.9 °F 15.1 °F 56% 30.07 in 10.0 mi North 17.3 mph - 0.00 in   Overcast
5:52 AM 28.9 °F 16.5 °F 15.1 °F 56% 30.10 in 10.0 mi North 18.4 mph - N/A   Overcast
6:52 AM 28.9 °F 16.5 °F 17.1 °F 61% 30.13 in 10.0 mi North 18.4 mph - N/A   Overcast
7:52 AM 28.9 °F 17.7 °F 18.0 °F 64% 30.16 in 10.0 mi North 15.0 mph - N/A   Overcast
8:52 AM 30.0 °F 19.1 °F 17.1 °F 59% 30.18 in 10.0 mi North 15.0 mph - N/A   Overcast
9:52 AM 30.9 °F 21.7 °F 16.0 °F 54% 30.21 in 10.0 mi North 11.5 mph - N/A   Overcast
10:52 AM 32.0 °F 20.8 °F 16.0 °F 52% 30.23 in 10.0 mi North 17.3 mph - N/A   Overcast
11:52 AM 33.1 °F 23.0 °F 16.0 °F 50% 30.22 in 10.0 mi NNW 15.0 mph - N/A   Overcast
12:52 PM 35.1 °F 25.9 °F 16.0 °F 46% 30.23 in 10.0 mi North 13.8 mph - N/A   Overcast
1:52 PM 35.1 °F 27.9 °F 16.0 °F 46% 30.24 in 10.0 mi North 9.2 mph - N/A   Partly Cloudy
2:52 PM 34.0 °F 27.2 °F 16.0 °F 48% 30.27 in 10.0 mi NNW 8.1 mph - N/A   Clear
3:52 PM 32.0 °F 24.8 °F 17.1 °F 54% 30.27 in 10.0 mi NNW 8.1 mph - N/A   Clear
4:52 PM 28.0 °F 20.8 °F 17.1 °F 63% 30.29 in 10.0 mi NNW 6.9 mph - N/A   Clear
5:52 PM 25.0 °F 17.1 °F 17.1 °F 72% 30.29 in 10.0 mi NNW 6.9 mph - N/A   Clear
6:52 PM 24.1 °F 18.2 °F 17.1 °F 75% 30.30 in 10.0 mi NNW 4.6 mph - N/A   Clear
7:52 PM 21.9 °F - 16.0 °F 78% 30.30 in 10.0 mi Calm Calm - N/A   Clear
8:52 PM 21.0 °F 14.6 °F 15.1 °F 78% 30.30 in 10.0 mi North 4.6 mph - N/A   Clear
9:52 PM 19.9 °F - 15.1 °F 81% 30.30 in 10.0 mi Calm Calm - N/A   Clear
10:52 PM 19.9 °F - 15.1 °F 81% 30.30 in 10.0 mi Calm Calm - N/A   Clear
11:52 PM 18.0 °F 11.1 °F 12.9 °F 81% 30.30 in 10.0 mi North 4.6 mph - N/A   Clear